User: anonymous   Login
Location: Unspecified
(0.0000°N, 0.0000°E)
Time: 12:58:32
(UTC+00:00)
Language:

NOAA 17 - Orbit

View from above orbital plane
View from above orbital plane
View from above satellite
View from above satellite

Ground track
Ground track

The orbit data is extracted from the following two-line orbital elements,

1 27453U 02032A   14302.11597554  .00000314  00000-0  15201-3 0  7869
2 27453 098.3226 294.8307 0012721 137.8986 222.3174 14.24801386641752
Epoch (UTC): 29 October 2014 02:47:00
Eccentricity: 0.0012721
inclination: 98.3226°
perigee height: 800 km
apogee height: 818 km
right ascension of ascending node: 294.8307°
argument of perigee: 137.8986°
revolutions per day: 14.24801386
mean anomaly at epoch: 222.3174°
orbit number at epoch: 64175

The dashed part of the orbit path shows where the satellite is in the earth's shadow,  

DLR